sat.trackr.live / text

‹ back to catalog

CENTISPACE-2 S6

NORAD 68355 · 2026-060F

PAYLOAD ACTIVE UNKNOWN

§ Identity

Operator
Country
PRC
Launch date
2026-03-22
Launch site
YSLA
Launch vehicle
Mass (kg)
RCS (m²)

External: N2YO · Heavens-Above · Gunter

§ Orbital elements

Epoch: 2026-05-25T09:08:23.701632Z

Period
97.77 min
Inclination
54.9749°
Eccentricity
0.0010813
Mean motion
14.72899039 rev/d
Perigee alt
644.2 km
Apogee alt
659.4 km
Semi-major
7,030.0 km
B*
2.5184e-5
RAAN
129.0737°
Arg perigee
83.0655°
Mean anomaly
277.1573°
Rev number
940

§ Raw data

CENTISPACE-2 S61 68355U 26060F   26145.38082988 -.00000043  00000+0  25184-4 0  99962 68355  54.9749 129.0737 0010813  83.0655 277.1573 14.72899039  9403

JSON: /api/v1/satellites/68355 · /tle

For live sub-satellite position, see the globe view (requires WebGL).

§ Visibility from observer

Set your observer location to see the next 7 days of passes ≥ 10°. The values pass through the URL so the page stays shareable.

No JS? Fill the form by hand. The geolocation button needs JavaScript.